Regional Weather Roundup
Issued by NWS

Home | Current Version | Previous Version | Text Only | Print | Product List | Glossary On
Versions: 1 2 3 4 5 6 7 8 9 10 11 12 13 14 15 16 17 18 19 20 21 22 23 24 25 26 27
000
ASUS42 KTBW 201717
RWRFL
FLORIDA REGIONAL WEATHER ROUNDUP
NATIONAL WEATHER SERVICE TAMPA BAY RUSKIN FL
1200 PM EST TUE FEB 20 2018

NOTE: "FAIR" INDICATES FEW OR NO CLOUDS BELOW 12,000 FEET WITH NO
SIGNIFICANT WEATHER AND/OR OBSTRUCTIONS TO VISIBILITY.

FLZ001>010-012>015-112-114-115-201800-
PANHANDLE FLORIDA

CITY           SKY/WX    TMP DP  RH WIND       PRES   REMARKS
PENSACOLA      PTSUNNY   75  68  78 SE15      30.27S
PENSACOLA NAS  FAIR      77  68  73 SE12      30.26S
MILTON NAS     PTSUNNY   78  67  68 SE21G26   30.28S
CRESTVIEW      PTSUNNY   77  66  68 SE12G18   30.30F
DUKE FIELD     PTSUNNY   78  67  69 S17G25    30.28F
VALPARAISO     PTSUNNY   75  67  76 SE22G28   30.28F
PANAMA CITY    CLOUDY    75  67  76 SE13      30.30S
TYNDALL AFB    MOSUNNY   79  69  70 SE24G31   30.30S
APALACHICOLA   PTSUNNY   75  69  81 SE15G24   30.32S

STATION/POSITION SKY/WX   TEMP    WIND        PRES    WAVE   SWELL
                          AIR SEA DIR/SP/G            HT/PER HT/PER
                          (F)     (DEG/KT/KT) (MB)    (FT/S) (FT/S)
29.2N   88.2W                 73  120/ 16/ 19 1023.3R   6/ 8   3/ 8
28.8N   86.0W              75 73  130/ 17/ 21 1024.5R   6/ 7
PANAMA CITY BEAC           69 67  130/ 12/ 14 1026.7R
TOWER C                    67     130/ 16/ 16 1027.1S

$$
FLZ011-016>038-118-127-128-134-139-239-201800-
NORTH FLORIDA

CITY           SKY/WX    TMP DP  RH WIND       PRES   REMARKS
MARIANNA       CLOUDY    78  67  68 VRB6      30.31F
TALLAHASSEE    CLOUDY    77  67  71 S18       30.34S
PERRY          CLOUDY    82  65  56 SE12      30.35F
LIVE OAK       PTSUNNY   81  64  57 E9        30.37F
CROSS CITY     PTSUNNY   80  65  60 SE7       30.39F
LAKE CITY      PTSUNNY   79  64  61 SE10G17   30.37F
GAINESVILLE    PTSUNNY   79  64  60 SE13      30.38F
WILLISTON      MOSUNNY   84  68  58 SE13      30.35F
PALATKA        PTSUNNY   81  64  57 SE9G20    30.37F
MAYPORT NAS    FAIR      77  68  73 SE9       30.39F
JACKSONVILLE   PTSUNNY   80  66  62 SE13      30.37F
JAX NAS        PTSUNNY   80  65  59 SE12      30.38F
JAX CECIL      PTSUNNY   79  70  73 SE12      30.37F
FERNANDINA BEA FAIR      77  66  69 SE7       30.39F
ST AUGUSTINE   FAIR      77  68  73 SE13      30.39F
PALM COAST     PTSUNNY   79  66  65 SE15G21   30.38F

STATION/POSITION SKY/WX   TEMP    WIND        PRES    WAVE   SWELL
                          AIR SEA DIR/SP/G            HT/PER HT/PER
                          (F)     (DEG/KT/KT) (MB)    (FT/S) (FT/S)
SHELL POINT                71     120/ 11/ 18 1026.8
KEATON BEACH               77     170/ 13/ 15 1027.7F
CEDAR KEY                  75     130/  6/  7 1027.5F
FERNANDINA                 77 60  120/  5/ 11 1030.3F
30.7N   81.3W                 63                N/A     4/ 6
MAYPORT                    74 58  130/  8/ 10 1029.4F
31.4N   80.9W              65 58  120/  8/  8 1029.5F   3/ 6   3/ 6
ST AUGUSTINE               67 62  110/  6/  7 1029.2F

$$
FLZ040-043>046-052-053-057-058-063-144-201800-
INTERIOR CENTRAL FLORIDA

CITY           SKY/WX    TMP DP  RH WIND       PRES   REMARKS
OCALA          PTSUNNY   81  67  62 SE6       30.36F
LEESBURG       PTSUNNY   82  67  60 S12       30.36F
SANFORD        FAIR      84  65  52 SE17      30.35F
ORLANDO EXEC   FAIR      84  64  50 SE17G23   30.35F
ORLANDO INTL   PTSUNNY   84  64  50 E15       30.35F
KISSIMMEE      FAIR      84  65  52 SE15      30.35F
WINTER HAVEN   PTSUNNY   81  66  60 SE10      30.35F
LAKELAND       PTSUNNY   81  66  61 SE15      30.34F
BARTOW         PTSUNNY   81  64  57 E13G18    30.34F
SEBRING        FAIR      85  65  51 SE16      30.34F
OKEECHOBEE     PTSUNNY   82  68  61 SE7G16    30.33F

$$
FLZ041-047-054-059-064-141-147-201800-
EAST CENTRAL FLORIDA

CITY           SKY/WX    TMP DP  RH WIND       PRES   REMARKS
ORMOND BEACH   MOSUNNY   77  66  69 SE13G21   30.38F
DAYTONA BEACH  FAIR      79  68  69 SE12G20   30.37F
DELAND         CLOUDY    81  66  61 SE10      30.36F
JFK SPACE CTR  PTSUNNY   79  73  80 SE9G20    30.36F
TITUSVILLE     PTSUNNY   82  70  65 SE17G23   30.37F
CAPE CANAVERAL FAIR      80  70  69 SE14      30.35F
PATRICK AFB    FAIR      79  72  78 SE10      30.36F
MELBOURNE      FAIR      82  69  64 SE16G25   30.35F
VERO BEACH     FAIR      81  69  67 E17G25    30.36F
FT PIERCE      PTSUNNY   79  70  74 E18       30.35F
STUART         MOSUNNY   82  72  69 E18G24    30.37S

STATION/POSITION SKY/WX   TEMP    WIND        PRES    WAVE   SWELL
                          AIR SEA DIR/SP/G            HT/PER HT/PER
                          (F)     (DEG/KT/KT) (MB)    (FT/S) (FT/S)
28.5N   80.2W              76 74  120/ 14/ 19 1028.3F   5/ 6   3/ 8
TRIDENT PIER               79 71  110/  7/ 12 1029.8F
28.4N   80.5W                 72                N/A     3/ 6
27.5N   80.2W                 75                N/A     5/ 6

$$
FLZ050-056-061-142-242-148-248-149-249-151-251-155-255-
160-260-201800-
WEST CENTRAL FLORIDA

CITY           SKY/WX    TMP DP  RH WIND       PRES   REMARKS
CRYSTAL RIVER  FAIR      82  64  54 E10       30.33F
INVERNESS      PTSUNNY   81  66  61 SE8       30.34F
BROOKSVILLE    FAIR      83  66  56 E12       30.33F
CLEARWATER AIR FAIR      79  66  65 E9G20     30.32F
ST PETE CLEARW FAIR      83  68  60 SE16      30.32F
TAMPA INTL     FAIR      83  67  58 SE13      30.32F
TAMPA EXEC     PTSUNNY   82  66  57 SE10      30.33F
PLANT CITY     PTSUNNY   82  66  57 SE10G16   30.35F
MACDILL AFB    PTSUNNY   82  69  64 S9        30.32F
PETER O KNIGHT CLOUDY    81  68  65 SE12      30.32F
ST PETERSBURG  CLOUDY    78  68  71 SE10      30.30F
SARASOTA       FAIR      83  68  60 SE14      30.29F
VENICE         FAIR      86  66  51 SE16G24   30.30F

STATION/POSITION SKY/WX   TEMP    WIND        PRES    WAVE   SWELL
                          AIR SEA DIR/SP/G            HT/PER HT/PER
                          (F)     (DEG/KT/KT) (MB)    (FT/S) (FT/S)
27.3N   84.2W                 73                N/A     5/ 6
CLEARWATER BEACH           78 71  110/  7/ 18 1026.6F
MIDDLE TAMPA BAY           78     150/ 15/ 18 1026.8F
VENICE                     81 73  120/ 10/ 13 1026.2F

$$
FLZ066-069-070-075>078-162-262-165-265-201800-
SOUTHWEST FLORIDA AND KEYS

CITY           SKY/WX    TMP DP  RH WIND       PRES   REMARKS
PUNTA GORDA    FAIR      85  64  49 SE18G28   30.31F
FT MYERS       FAIR      85  65  51 SE13G21   30.29F
SOUTHWEST INTL FAIR      83  66  56 SE15G24   30.29F
NAPLES         LGT RAIN  76  70  82 SE16G29   30.31S
MARCO ISLAND   CLOUDY    77  71  82 E10       30.31F
IMMOKALEE      PTSUNNY   84  66  54 SE16G25   30.31F
MARATHON       FAIR      84  69  60 E12G18    30.27F
KEY WEST NAS   FAIR      82  74  76 E21       30.27F
KEY WEST INTL  FAIR      81  71  71 E17       30.27F

STATION/POSITION SKY/WX   TEMP    WIND        PRES    WAVE   SWELL
                          AIR SEA DIR/SP/G            HT/PER HT/PER
                          (F)     (DEG/KT/KT) (MB)    (FT/S) (FT/S)
NAPLES                        73  130/  9/ 21 1026.4S
DRY TORTUGAS               74      90/ 11/ 13 1024.5F
SAND KEY                   77                 1025.3F
LONG KEY                   77 77  120/ 16/ 18 1025.2
MOLASSES REEF              77 77  120/ 18/ 20 1026.0F

$$
FLZ067-068-071>074-168-172>174-201800-
SOUTHEAST FLORIDA

CITY           SKY/WX    TMP DP  RH WIND       PRES   REMARKS
W PALM BEACH   PTSUNNY   82  71  69 E18       30.34F
BOCA RATON     MOSUNNY   82  72  69 SE15      30.33F
FT LAUDER-EXEC FAIR      81  71  71 E20       30.32F
FT LAUDERDALE  PTSUNNY   82  73  74 E20G28    30.31F
POMPANO BEACH  PTSUNNY   80  73  79 E15G23    30.33F
PEMBROKE PINES PTSUNNY   81  70  69 E18G25    30.33F
OPA LOCKA      PTSUNNY   83  71  67 E17G29    30.32F
MIAMI          PTSUNNY   83  70  64 E16       30.31F
WEST KENDALL   PTSUNNY   80  70  71 E17G29    30.30F
HOMESTEAD      LGT RAIN  77  72  83 E15       30.30F

STATION/POSITION SKY/WX   TEMP    WIND        PRES    WAVE   SWELL
                          AIR SEA DIR/SP/G            HT/PER HT/PER
                          (F)     (DEG/KT/KT) (MB)    (FT/S) (FT/S)
PORT EVERGLADES            79     100/  6/ 12 1026.9
VIRGINIA KEY               77 77   70/ 14/ 17 1026.0F
LAKE WORTH                 76 76  110/ 15/ 17 1028.5F
FOWEY ROCKS                77 76  100/ 18/ 19 1026.9F
SETTLEMENT POINT           77     110/ 13/ 15 1027.8F

$$





USA.gov is the U.S. government's official web portal to all federal, state and local government web resources and services.